Regional Weather Roundup
Issued by NWS Lake Charles, LA

Home | Current Version | Previous Version | Text Only | Print | Product List | Glossary On
Versions: 1 2 3 4 5 6 7 8 9 10 11 12 13 14 15 16 17 18 19 20 21 22 23 24 25 26 27 28 29 30 31 32 33 34 35 36 37 38 39 40 41 42 43 44 45 46 47 48 49 50
000
ASUS44 KLCH 170810
RWRLCH
RWRLCH
REGIONAL WEATHER ROUNDUP
NATIONAL WEATHER SERVICE LAKE CHARLES LA
300 AM CDT WED SEP 17 2014

Note: "fair" indicates few or no clouds below 12,000 feet with no
significant weather and/or obstructions to visibility.


ACROSS SOUTHEAST TEXAS

CITY           SKY/WX    TMP DP  RH WIND       PRES   REMARKS
BEAUMONT       CLOUDY    77  74  90 CALM      29.95F
BEAUMONT CITY    N/A     75  74  98 CALM      29.96F FOG
ORANGE         PTSUNNY  N/A N/A N/A CALM      29.97F
JASPER         CLOUDY    72  71  96 CALM      30.00F FOG
$$

ACROSS CENTRAL LOUISIANA

CITY           SKY/WX    TMP DP  RH WIND       PRES   REMARKS
LEESVILLE      CLOUDY    72  71  97 CALM      29.97F
FULLERTON      FOG       73  70  90 CALM      29.95F VSB 3/4
ALEXANDRIA INT CLEAR     72  71  97 CALM      29.96F
ESLER FIELD    PTCLDY    70  69  97 CALM      29.98F
DERIDDER       FOG       73  72  95 CALM      29.99F VSB 1/4
OAKDALE        FOG       72  71  96 CALM      29.97F VSB 1/2
OPELOUSAS      PTSUNNY   71  71  99 CALM      29.98F FOG
$$

ACROSS SOUTHWEST AND SOUTH CENTRAL LOUISIANA

CITY           SKY/WX    TMP DP  RH WIND       PRES   REMARKS
SULPHUR        CLOUDY    75  75  98 CALM      29.96F
LAKE CHARLES   CLOUDY    75  74  96 CALM      29.96F
CHENNAULT INT  FOG       75  74  99 CALM      29.97F VSB 3/4
CAMERON PHI    SUNNY     75  73  94 NW3       29.98F
DEQUINCY       FOG       72  72  99 CALM      29.96F VSB 1/4
JENNINGS         N/A     73  72  98 CALM      29.97S
LAFAYETTE      CLOUDY    74  73  97 CALM      29.98F
NEW IBERIA     CLOUDY    73  73 100 CALM      29.99S
ABBEVILLE        N/A     71  71  99 CALM      29.98F
PATTERSON      CLOUDY    73  72  94 CALM      30.00S
SALT POINT       N/A     76  74  93 CALM      29.97S
$$

SELECTED SITES ACROSS THE REGION

CITY           SKY/WX    TMP DP  RH WIND       PRES   REMARKS
HOUSTON BUSH   CLOUDY    76  75  97 CALM      29.96F
HOUSTON HOBBY  CLOUDY    77  76  96 SE3       29.95F
GALVESTON      CLOUDY    81  78  91 S3        29.96F
COLLEGE STAT   MOCLDY    75  74  96 S5        29.97F
CONROE         FOG       75  74  96 SE3       29.98S VSB 3/4
HUNTSVILLE     CLOUDY    75  73  93 CALM      29.98S
LUFKIN         CLOUDY    75  72  90 SE3       29.99R FOG
SHREVEPORT     CLOUDY    73  71  93 CALM      29.98F
MONROE         CLOUDY    73  70  90 N3        30.00S
NATCHEZ MS     PTCLDY    72  70  94 CALM      29.98F
BATON ROUGE    CLOUDY    73  71  93 CALM      29.97F
N.O. INTL ARPT CLOUDY    76  71  85 NW5       29.96S
SLIDELL        CLOUDY    73  70  90 NE5       29.96S
$$

MARINE REPORTS

STATION/POSITION TIME  TEMP    WIND        PRES    VSBY  WAVE
                       AIR SEA DIR/SP/G                  HT/PER
                 (UTC) (F)     (DEG/KT/KT) (MB)    (MI)  (FT/S)
BUOY 30 S HIGH I 0800   81 84  180/  8/ 10 1014.0F         2/ 7
SEA RIM ST PARK  0800   77      70/  2/  2 1014.7F
PORT ARTHUR      0800      84   60/  1/  2 1014.3S
SABINE PASS N    0800   77 82   CALM  /  2 1014.3F
TEXAS POINT      0800   78 82  100/  2/  3 1014.4F
CALCASIEU PASS   0800   77 83  290/  3/  4 1015.4F
LK CHARLES BEACH 0800   76 84              1014.4F
MARSH ISLAND     NOT AVBL
FRESH WATER LOCK 0800   74 83   30/  5/  6 1014.8F
AMERADA PASS     0800   74 84   60/  2/  5 1015.1S
$$



USA.gov is the U.S. government's official web portal to all federal, state and local government web resources and services.